Overview Statistics Trail Chart Weather Telemetry Raw packets
 

This is the latest recevied weather packets stored in our database for station/object EA1HTW-1. If no packets are shown the sender has not sent any weather packets the latest 10 day(s).

<< 1 2 >>
Time Temp. Humidity Pressure Rain* Wind** Luminosity Snow
1788672780 15.56° C 83% 990.9 hPa 0 mm - - -
1788672181 16.11° C 82% 990.7 hPa 0 mm - - -
1788671581 15.56° C 83% 990.6 hPa 0 mm - - -
1788670981 15.56° C 84% 990.8 hPa 0 mm - - -
1788670380 15.56° C 83% 990.7 hPa 0 mm - - -
1788669180 16.11° C 82% 990.7 hPa 0 mm - - -
1788668580 16.11° C 82% 990.7 hPa 0 mm - - -
1788667980 16.11° C 84% 990.6 hPa 0 mm - - -
1788667380 16.11° C 83% 990.8 hPa 0 mm - - -
1788666780 16.11° C 84% 990.8 hPa 0 mm - - -
1788666180 16.11° C 82% 990.6 hPa 0 mm - - -
1788665580 16.11° C 83% 990.7 hPa 0 mm - - -
1788664979 16.11° C 82% 990.7 hPa 0 mm - - -
1788663780 16.11° C 82% 990.8 hPa 0 mm - - -
1788663178 16.67° C 80% 990.8 hPa 0 mm - - -
1788662580 17.22° C 79% 990.9 hPa 0 mm - - -
1788661979 17.22° C 78% 990.9 hPa 0 mm - - -
1788661378 17.78° C 77% 990.9 hPa 0 mm - - -
1788660782 17.22° C 77% 990.8 hPa 0 mm - - -
1788659580 16.67° C 80% 991.1 hPa 0 mm - - -
1788658981 17.78° C 78% 991.1 hPa 0 mm - - -
1788658378 17.78° C 77% 991.2 hPa 0 mm - - -
1788657780 18.33° C 76% 991.3 hPa 0 mm - - -
1788657179 17.78° C 76% 991.3 hPa 0 mm - - -
1788656580 17.78° C 77% 991.4 hPa 0 mm - - -

* Rain latest hour (hover to see other rain measurements)
** Current wind speed in m/s (hover to see current wind gust speed)